Simultaneous Nadir Overpasses (SNOs) Predictions

Prediction of SNOs between AQUA and NOAA-19 Satellite Orbit:

Table of predicted SNOs for the next 14.0 days since TLE Epoch: 1/10/2025
Index Date (AQUA) Time (AQUA) Lat,Lon (AQUA) SZA (AQUA ) Date (NOAA-19) Time (NOAA-19) Lat,Lon (NOAA-19) SZA (NOAA-19 ) Distance(km) Time Diff (sec)
1 01/12/2025 10:34:12 -75.61,-156.38 82.91 01/12/2025 10:33:27 -75.60,-156.39 82.92 1.43 45
2 01/12/2025 11:23:34 75.69, 11.06 97.17 01/12/2025 11:24:20 75.66, 11.07 97.14 3.47 46
3 01/14/2025 13:32:08 -75.65, 159.10 83.24 01/14/2025 13:31:54 -75.65, 159.18 83.24 2.34 14
4 01/14/2025 14:21:32 75.82, -33.78 96.94 01/14/2025 14:22:43 75.87, -32.79 96.98 27.19 71
5 01/16/2025 15:40:36 75.25, -51.85 95.97 01/16/2025 15:39:28 75.20, -54.08 95.92 63.40 68
6 01/16/2025 16:30:02 -75.63, 114.71 83.66 01/16/2025 16:30:22 -75.64, 114.58 83.65 3.83 20
7 01/18/2025 18:38:37 75.63, -97.39 95.93 01/18/2025 18:37:46 75.62, -97.28 95.91 3.55 51
8 01/18/2025 19:27:56 -75.67, 70.18 84.05 01/18/2025 19:28:49 -75.66, 70.09 84.06 2.69 53
9 01/20/2025 21:36:29 75.63,-141.79 95.46 01/20/2025 21:36:13 75.62,-141.85 95.46 1.86 16
10 01/20/2025 22:25:59 -76.19, 24.12 83.97 01/20/2025 22:27:04 -76.21, 27.47 83.96 89.02 65
11 01/22/2025 23:44:59 -75.58, 6.28 85.07 01/22/2025 23:43:48 -75.59, 6.21 85.05 2.25 71
12 01/23/2025 00:34:21 75.68, 173.66 95.02 01/23/2025 00:34:39 75.66, 173.72 95.01 2.58 18



Historial Predications of SNOs between AQUA and NOAA-19
